カタログに戻る

ARIANE 2 DEB

LostGTO
NORAD 33570·DEBRIS·🇫🇷 France

打ち上げ Jan 27, 1989 から Guiana Space Centre

Loading…

TLE

古いSource: Space-Track

元期: May 15, 2016, 12:31 UTC

1 33570U 89006BN  16136.52211315  .00000945  00000-0  20272-1 0  9990
2 33570   8.0464 133.4791 7120125  18.9319  87.6909  2.26840494 83895

AllMySatでARIANE 2 DEBをリアルタイム追跡

Download on the App Store